CCA1884 ZSPD-ZSPD

Flight info

Callsign CCA1884
Flight time 0h 53m
Altitude 36100
Route PIK95D/35R PIKAS G330 PIMOL A593 DALIM W157 AVBOX RV/35L
Aircraft B77W/H-SDE1E2E3FGHIJ2J3J4J5M1RWXY/LB1D1

Departure

Time 2026-05-07 08:18
Airport Shanghai Pudong International Airport (ZSPD)

Arrival

Time 2026-05-07 09:11
Airport Shanghai Pudong International Airport (ZSPD)
Time Latitude Longitude Altitude Speed Heading
2026-05-07 08:12 31.64102 121.52402 19607 ft 415 kts 307°
2026-05-07 08:13 31.65712 121.49654 19605 ft 410 kts 296°
2026-05-07 08:13 31.66872 121.46606 19462 ft 409 kts 287°
2026-05-07 08:13 31.67543 121.43379 19119 ft 406 kts 277°
2026-05-07 08:13 31.67688 121.40105 18763 ft 402 kts 268°
2026-05-07 08:14 31.67304 121.36876 18400 ft 399 kts 257°
2026-05-07 08:14 31.66399 121.33780 18018 ft 398 kts 247°
2026-05-07 08:14 31.65020 121.30975 17665 ft 399 kts 237°
2026-05-07 08:14 31.63190 121.28499 17318 ft 402 kts 226°
2026-05-07 08:15 31.60982 121.26460 16975 ft 404 kts 216°
2026-05-07 08:15 31.58495 121.24944 16625 ft 407 kts 206°
2026-05-07 08:15 31.55774 121.23978 16276 ft 410 kts 195°
2026-05-07 08:15 31.52944 121.23611 15932 ft 412 kts 185°
2026-05-07 08:16 31.50052 121.23859 15578 ft 416 kts 174°
2026-05-07 08:16 31.47236 121.24718 15193 ft 419 kts 163°
2026-05-07 08:16 31.44570 121.26170 14799 ft 422 kts 153°
2026-05-07 08:16 31.42181 121.28175 14736 ft 425 kts 142°
2026-05-07 08:17 31.40105 121.30650 14639 ft 429 kts 134°
2026-05-07 08:17 31.38166 121.33271 14696 ft 431 kts 133°
2026-05-07 08:17 31.36636 121.35352 14707 ft 430 kts 133°
2026-05-07 08:17 31.34328 121.38490 14654 ft 429 kts 133°
2026-05-07 08:18 31.32373 121.41154 14702 ft 431 kts 133°
2026-05-07 08:18 31.30424 121.43801 14739 ft 429 kts 133°
2026-05-07 08:18 31.28498 121.46420 14637 ft 430 kts 133°
2026-05-07 08:18 31.26555 121.49058 14689 ft 430 kts 133°
2026-05-07 08:19 31.24598 121.51718 14764 ft 431 kts 133°
2026-05-07 08:19 31.22656 121.54356 14657 ft 427 kts 133°
2026-05-07 08:19 31.20696 121.57012 14673 ft 428 kts 133°
2026-05-07 08:19 31.18758 121.59646 14690 ft 429 kts 133°
2026-05-07 08:20 31.16822 121.62275 14704 ft 429 kts 133°
2026-05-07 08:20 31.14879 121.64912 14691 ft 427 kts 133°
2026-05-07 08:20 31.12917 121.67569 14522 ft 423 kts 134°
2026-05-07 08:20 31.10961 121.70049 13901 ft 419 kts 139°
2026-05-07 08:21 31.08798 121.72379 13195 ft 418 kts 140°
2026-05-07 08:21 31.06693 121.74611 12526 ft 417 kts 140°
2026-05-07 08:21 31.04522 121.76898 11943 ft 414 kts 141°
2026-05-07 08:21 31.02355 121.78990 11674 ft 398 kts 144°
2026-05-07 08:22 31.00220 121.80939 11883 ft 372 kts 145°
2026-05-07 08:22 30.98247 121.82735 11989 ft 353 kts 145°
2026-05-07 08:22 30.96292 121.84603 12035 ft 378 kts 143°
2026-05-07 08:22 30.94232 121.86528 11996 ft 366 kts 144°
2026-05-07 08:23 30.92305 121.88317 11955 ft 352 kts 146°
2026-05-07 08:23 30.90333 121.90028 11949 ft 357 kts 145°
2026-05-07 08:23 30.88395 121.91812 11886 ft 343 kts 144°
2026-05-07 08:23 30.86569 121.93516 11748 ft 334 kts 144°
2026-05-07 08:24 30.84780 121.95182 11698 ft 320 kts 144°
2026-05-07 08:24 30.83065 121.96779 11683 ft 312 kts 144°
2026-05-07 08:24 30.81356 121.98364 11695 ft 312 kts 143°
2026-05-07 08:24 30.79919 122.00257 11671 ft 317 kts 121°
2026-05-07 08:25 30.79182 122.02711 11282 ft 325 kts 97°
2026-05-07 08:25 30.79336 122.05338 10790 ft 327 kts 72°
2026-05-07 08:25 30.80170 122.07771 10316 ft 327 kts 64°
2026-05-07 08:25 30.81136 122.10213 9888 ft 327 kts 63°
2026-05-07 08:26 30.82978 122.14840 9793 ft 308 kts 63°
2026-05-07 08:26 30.83882 122.17123 9793 ft 308 kts 63°
2026-05-07 08:26 30.84780 122.19387 9794 ft 309 kts 63°
2026-05-07 08:27 30.85689 122.21688 9792 ft 310 kts 63°
2026-05-07 08:27 30.86585 122.23952 9793 ft 310 kts 63°
2026-05-07 08:27 30.87497 122.26244 9788 ft 309 kts 63°
2026-05-07 08:27 30.88404 122.28507 9792 ft 311 kts 63°
2026-05-07 08:28 30.89327 122.30816 9795 ft 310 kts 63°
2026-05-07 08:28 30.90238 122.33085 9795 ft 309 kts 63°
2026-05-07 08:28 30.91152 122.35368 9796 ft 310 kts 63°
2026-05-07 08:28 30.92072 122.37663 9795 ft 309 kts 63°
2026-05-07 08:29 30.92985 122.39937 9790 ft 309 kts 63°
2026-05-07 08:29 30.93883 122.42184 9792 ft 310 kts 63°
2026-05-07 08:29 30.94799 122.44473 9794 ft 310 kts 63°
2026-05-07 08:29 30.95708 122.46743 9793 ft 310 kts 63°
2026-05-07 08:30 30.96623 122.49026 9787 ft 309 kts 63°
2026-05-07 08:30 30.97543 122.51322 9788 ft 309 kts 63°
2026-05-07 08:30 30.98457 122.53600 9789 ft 309 kts 63°
2026-05-07 08:30 30.99364 122.55861 9787 ft 309 kts 63°
2026-05-07 08:31 31.00276 122.58131 9788 ft 310 kts 63°
2026-05-07 08:31 31.01198 122.60434 9787 ft 309 kts 63°
2026-05-07 08:31 31.02100 122.62685 9788 ft 309 kts 63°
2026-05-07 08:31 31.03020 122.64980 9789 ft 309 kts 63°
2026-05-07 08:32 31.03922 122.67241 9783 ft 309 kts 63°
2026-05-07 08:32 31.04837 122.69536 9788 ft 309 kts 63°
2026-05-07 08:32 31.05738 122.71807 9787 ft 308 kts 63°
2026-05-07 08:32 31.06645 122.74098 9786 ft 309 kts 63°
2026-05-07 08:33 31.07544 122.76368 9786 ft 309 kts 63°
2026-05-07 08:33 31.08458 122.78657 9699 ft 309 kts 63°
2026-05-07 08:33 31.09362 122.80918 9688 ft 309 kts 63°
2026-05-07 08:33 31.10283 122.83217 9688 ft 309 kts 63°
2026-05-07 08:34 31.11185 122.85471 9690 ft 308 kts 63°
2026-05-07 08:34 31.12100 122.87762 9691 ft 309 kts 63°
2026-05-07 08:34 31.12836 122.90118 9690 ft 309 kts 72°
2026-05-07 08:34 31.13427 122.92539 9687 ft 309 kts 73°
2026-05-07 08:35 31.14005 122.94963 9688 ft 309 kts 73°
2026-05-07 08:35 31.14579 122.97373 9692 ft 310 kts 73°
2026-05-07 08:35 31.15161 122.99824 9686 ft 309 kts 73°
2026-05-07 08:35 31.15735 123.02242 9693 ft 311 kts 73°
2026-05-07 08:36 31.16318 123.04689 9699 ft 310 kts 73°
2026-05-07 08:36 31.16893 123.07098 9703 ft 311 kts 73°
2026-05-07 08:36 31.17478 123.09541 9710 ft 310 kts 73°
2026-05-07 08:36 31.18058 123.11968 9710 ft 310 kts 73°
2026-05-07 08:37 31.18636 123.14391 9710 ft 310 kts 73°
2026-05-07 08:37 31.19224 123.16846 9711 ft 311 kts 73°
2026-05-07 08:37 31.19809 123.19293 9713 ft 312 kts 73°
2026-05-07 08:37 31.20392 123.21723 9711 ft 310 kts 73°
2026-05-07 08:38 31.20970 123.24157 9708 ft 310 kts 75°
2026-05-07 08:38 31.21098 123.26644 9704 ft 310 kts 99°
2026-05-07 08:38 31.20359 123.29012 9703 ft 310 kts 124°
2026-05-07 08:38 31.18884 123.30814 9699 ft 305 kts 149°
2026-05-07 08:39 31.16959 123.31768 9701 ft 299 kts 173°
2026-05-07 08:39 31.14888 123.31755 9694 ft 291 kts 197°
2026-05-07 08:39 31.13089 123.30818 9696 ft 284 kts 219°
2026-05-07 08:39 31.11756 123.29139 9697 ft 279 kts 242°
2026-05-07 08:40 31.10989 123.27057 9709 ft 277 kts 252°
2026-05-07 08:40 31.10418 123.24929 9713 ft 275 kts 255°
2026-05-07 08:40 31.09885 123.22786 9711 ft 276 kts 255°
2026-05-07 08:40 31.09360 123.20619 9706 ft 275 kts 255°
2026-05-07 08:41 31.08843 123.18471 9707 ft 276 kts 255°
2026-05-07 08:41 31.08328 123.16316 9697 ft 276 kts 256°
2026-05-07 08:41 31.08187 123.14101 9678 ft 276 kts 279°
2026-05-07 08:41 31.08879 123.12055 9674 ft 278 kts 304°
2026-05-07 08:42 31.10334 123.10553 9682 ft 281 kts 330°
2026-05-07 08:42 31.12236 123.09965 9684 ft 289 kts 355°
2026-05-07 08:42 31.14220 123.10412 9682 ft 297 kts 21°
2026-05-07 08:42 31.15918 123.11867 9679 ft 303 kts 47°
2026-05-07 08:43 31.16949 123.14031 9689 ft 310 kts 70°
2026-05-07 08:43 31.17571 123.16457 9697 ft 311 kts 73°
2026-05-07 08:43 31.18150 123.18864 9696 ft 310 kts 73°
2026-05-07 08:43 31.18735 123.21310 9697 ft 311 kts 73°
2026-05-07 08:44 31.19318 123.23749 9699 ft 310 kts 73°
2026-05-07 08:44 31.19637 123.26245 9694 ft 311 kts 94°
2026-05-07 08:44 31.19095 123.28653 9687 ft 310 kts 119°
2026-05-07 08:44 31.17744 123.30600 9689 ft 307 kts 145°
2026-05-07 08:45 31.15874 123.31689 9686 ft 299 kts 170°
2026-05-07 08:45 31.13827 123.31752 9683 ft 290 kts 195°
2026-05-07 08:45 31.12027 123.30807 9683 ft 282 kts 221°
2026-05-07 08:45 31.10807 123.29067 9682 ft 278 kts 247°
2026-05-07 08:46 31.10402 123.26894 9679 ft 275 kts 272°
2026-05-07 08:46 31.10898 123.24754 9683 ft 276 kts 298°
2026-05-07 08:46 31.12180 123.23113 9683 ft 279 kts 324°
2026-05-07 08:46 31.14004 123.22295 9683 ft 287 kts 349°
2026-05-07 08:47 31.16033 123.22501 9681 ft 295 kts 15°
2026-05-07 08:47 31.17831 123.23733 9687 ft 304 kts 41°
2026-05-07 08:47 31.19046 123.25762 9690 ft 309 kts 66°
2026-05-07 08:47 31.19442 123.28230 9687 ft 312 kts 92°
2026-05-07 08:48 31.18937 123.30673 9687 ft 309 kts 118°
2026-05-07 08:48 31.17625 123.32643 9690 ft 307 kts 143°
2026-05-07 08:48 31.15773 123.33782 9684 ft 300 kts 169°
2026-05-07 08:48 31.13727 123.33903 9681 ft 291 kts 194°
2026-05-07 08:49 31.11882 123.32993 9680 ft 282 kts 220°
2026-05-07 08:49 31.10625 123.31270 9688 ft 277 kts 246°
2026-05-07 08:49 31.09926 123.29183 9700 ft 276 kts 252°
2026-05-07 08:49 31.09312 123.27059 9699 ft 275 kts 253°
2026-05-07 08:50 31.08699 123.24917 9700 ft 275 kts 253°
2026-05-07 08:50 31.08099 123.22809 9693 ft 277 kts 253°
2026-05-07 08:50 31.07490 123.20674 9695 ft 276 kts 253°
2026-05-07 08:50 31.06886 123.18545 9693 ft 276 kts 253°
2026-05-07 08:51 31.06281 123.16402 9694 ft 276 kts 253°
2026-05-07 08:51 31.05685 123.14285 9694 ft 277 kts 253°
2026-05-07 08:51 31.05088 123.12155 9689 ft 275 kts 253°
2026-05-07 08:51 31.04496 123.10030 9693 ft 277 kts 253°
2026-05-07 08:52 31.03904 123.07909 9694 ft 276 kts 253°
2026-05-07 08:52 31.03308 123.05781 9689 ft 275 kts 253°
2026-05-07 08:52 31.02714 123.03644 9691 ft 277 kts 253°
2026-05-07 08:52 31.02117 123.01508 9693 ft 276 kts 253°
2026-05-07 08:53 31.01519 122.99370 9698 ft 277 kts 253°
2026-05-07 08:53 31.00916 122.97232 9703 ft 276 kts 253°
2026-05-07 08:53 31.00320 122.95128 9707 ft 277 kts 253°
2026-05-07 08:53 30.99715 122.92998 9700 ft 277 kts 253°
2026-05-07 08:54 30.99116 122.90846 9701 ft 275 kts 256°
2026-05-07 08:54 30.98764 122.88685 9710 ft 275 kts 263°
2026-05-07 08:54 30.98509 122.86455 9708 ft 275 kts 263°
2026-05-07 08:54 30.98266 122.84232 9707 ft 274 kts 263°
2026-05-07 08:55 30.98027 122.82027 9709 ft 275 kts 263°
2026-05-07 08:55 30.97785 122.79784 9711 ft 276 kts 263°
2026-05-07 08:55 30.97543 122.77575 9705 ft 274 kts 263°
2026-05-07 08:55 30.97303 122.75372 9700 ft 276 kts 263°
2026-05-07 08:56 30.97058 122.73154 9702 ft 275 kts 263°
2026-05-07 08:56 30.96811 122.70937 9704 ft 276 kts 263°
2026-05-07 08:56 30.96563 122.68722 9703 ft 276 kts 263°
2026-05-07 08:56 30.96312 122.66503 9702 ft 275 kts 263°
2026-05-07 08:57 30.96058 122.64290 9700 ft 275 kts 263°
2026-05-07 08:57 30.95803 122.62068 9697 ft 275 kts 263°
2026-05-07 08:57 30.95548 122.59840 9701 ft 275 kts 263°
2026-05-07 08:57 30.95301 122.57655 9702 ft 276 kts 263°
2026-05-07 08:58 30.95053 122.55439 9698 ft 276 kts 263°
2026-05-07 08:58 30.94807 122.53201 9700 ft 275 kts 263°
2026-05-07 08:58 30.94567 122.51003 9697 ft 275 kts 263°
2026-05-07 08:58 30.94323 122.48766 9692 ft 275 kts 263°
2026-05-07 08:59 30.94084 122.46561 9695 ft 276 kts 264°
2026-05-07 08:59 30.93842 122.44328 9689 ft 275 kts 263°
2026-05-07 08:59 30.93602 122.42136 9740 ft 275 kts 264°
2026-05-07 08:59 30.93356 122.39891 9495 ft 280 kts 264°
2026-05-07 09:00 30.93105 122.37646 9156 ft 278 kts 264°
2026-05-07 09:00 30.92853 122.35422 8819 ft 277 kts 264°
2026-05-07 09:00 30.92596 122.33205 8479 ft 275 kts 263°
2026-05-07 09:00 30.92338 122.31001 8137 ft 274 kts 263°
2026-05-07 09:01 30.92074 122.28767 7794 ft 273 kts 263°
2026-05-07 09:01 30.91819 122.26595 7460 ft 272 kts 263°
2026-05-07 09:01 30.91558 122.24406 7115 ft 271 kts 263°
2026-05-07 09:01 30.91301 122.22231 6784 ft 271 kts 263°
2026-05-07 09:02 30.91036 122.20074 6443 ft 270 kts 263°
2026-05-07 09:02 30.90767 122.17897 6104 ft 270 kts 263°
2026-05-07 09:02 30.90496 122.15713 5753 ft 271 kts 263°
2026-05-07 09:02 30.90229 122.13560 5408 ft 271 kts 263°
2026-05-07 09:03 30.89963 122.11402 5076 ft 270 kts 263°
2026-05-07 09:03 30.89698 122.09206 4726 ft 270 kts 263°
2026-05-07 09:03 30.89439 122.07043 4379 ft 270 kts 263°
2026-05-07 09:03 30.89181 122.04892 4030 ft 270 kts 263°
2026-05-07 09:04 30.88923 122.02726 3678 ft 270 kts 263°
2026-05-07 09:04 30.88664 122.00553 3338 ft 270 kts 263°
2026-05-07 09:04 30.88405 121.98393 3032 ft 268 kts 263°
2026-05-07 09:04 30.88154 121.96275 2981 ft 258 kts 264°
2026-05-07 09:05 30.87908 121.94212 2970 ft 255 kts 263°
2026-05-07 09:05 30.87871 121.92182 2948 ft 252 kts 284°
2026-05-07 09:05 30.88631 121.90413 2960 ft 238 kts 314°
2026-05-07 09:05 30.89832 121.89156 2965 ft 223 kts 317°
2026-05-07 09:06 30.90971 121.87999 2969 ft 214 kts 325°
2026-05-07 09:06 30.92232 121.87151 2961 ft 200 kts 335°
2026-05-07 09:06 30.93491 121.86558 2964 ft 187 kts 341°
2026-05-07 09:06 30.94715 121.86083 2965 ft 185 kts 342°
2026-05-07 09:07 30.95941 121.85634 2973 ft 184 kts 343°
2026-05-07 09:07 30.97172 121.85187 2971 ft 185 kts 342°
2026-05-07 09:07 30.98401 121.84734 2826 ft 188 kts 342°
2026-05-07 09:07 30.99656 121.84266 2597 ft 187 kts 343°
2026-05-07 09:08 31.00884 121.83809 2353 ft 183 kts 343°
2026-05-07 09:08 31.02091 121.83357 2108 ft 180 kts 344°
2026-05-07 09:08 31.03272 121.82916 1872 ft 176 kts 344°
2026-05-07 09:08 31.04401 121.82494 1653 ft 164 kts 344°
2026-05-07 09:09 31.05478 121.82090 1448 ft 159 kts 345°
2026-05-07 09:09 31.06504 121.81705 1244 ft 150 kts 345°
2026-05-07 09:09 31.07440 121.81355 1066 ft 141 kts 344°
2026-05-07 09:09 31.08366 121.81007 886 ft 141 kts 344°
2026-05-07 09:10 31.09275 121.80662 706 ft 141 kts 344°
2026-05-07 09:10 31.10196 121.80321 522 ft 141 kts 345°
2026-05-07 09:10 31.11096 121.79993 341 ft 137 kts 341°
2026-05-07 09:10 31.12009 121.79646 182 ft 138 kts 342°
2026-05-07 09:11 31.12909 121.79308 45 ft 135 kts 342°
2026-05-07 09:11 31.13715 121.79002 28 ft 92 kts 341°
2026-05-07 09:11 31.14005 121.78894 27 ft 25 kts 340°
2026-05-07 09:11 31.14150 121.78796 27 ft 22 kts 323°
2026-05-07 09:12 31.14230 121.78702 27 ft 5 kts 313°
2026-05-07 09:12 31.14254 121.78671 27 ft 2 kts 313°
2026-05-07 09:12 31.14262 121.78661 27 ft 0 kts 313°
2026-05-07 09:13 31.14269 121.78642 27 ft 4 kts 271°
2026-05-07 09:13 31.14248 121.78587 27 ft 11 kts 247°
2026-05-07 09:14 31.14215 121.78515 27 ft 8 kts 209°
2026-05-07 09:14 31.14159 121.78517 27 ft 8 kts 159°
2026-05-07 09:14 31.14104 121.78541 27 ft 7 kts 167°
2026-05-07 09:14 31.14077 121.78517 27 ft 5 kts 241°
2026-05-07 09:15 31.14065 121.78478 27 ft 5 kts 252°
2026-05-07 09:15 31.14052 121.78432 27 ft 4 kts 252°
2026-05-07 09:15 31.14051 121.78428 27 ft 0 kts 252°